Location: Vilaller
(42.4759°N, 0.7167°E)
Time: 02:36:34
(UTC+00:00)

Daily predictions for brighter satellites

Satellite Brightness Start Highest point End
(mag) Time Altitude Azimuth Time Altitude Azimuth Time Altitude Azimuth
ATLAS 3B R/B 4.4 03:30:35 23° NNE 03:31:37 24° NNE 03:37:12 10° E
Lacrosse 4 Rocket 4.5 03:38:11 14° E 03:38:11 14° E 03:39:03 10° E
ALOS 4.5 03:51:30 10° NNE 04:02:14 - S 03:53:16 20° NE
NOSS 3-4 (A) 3.9 04:00:50 56° ENE 04:00:50 56° ENE 04:05:51 10° NE
NOSS 3-4 (C) 3.8 04:00:54 56° ENE 04:00:54 56° ENE 04:05:59 10° NE
NOSS 3-2 (C) 3.9 04:00:08 81° N 04:00:34 86° NE 04:09:12 10° SE
Milstar 3 Cent rocket 4.1 04:00:16 27° S 04:01:32 29° SSE 04:10:25 10° ESE
CENTAUR R/B 3.1 04:01:35 73° NNW 04:02:36 88° NE 04:11:31 10° SE
ATLAS 2AS CENTAUR R/B 3.1 04:15:30 36° SSW 04:19:07 77° ESE 04:27:02 10° NE
NOSS 3-2 (A) 4.4 04:28:37 46° SW 04:28:37 46° SW 04:35:56 10° S
Atlas Centaur 2 3.9 04:26:40 23° SSW 04:27:58 25° S 04:32:36 10° ESE
RESURS DK-1 4.3 04:26:56 12° SSE 04:30:09 29° ESE 04:33:47 10° NE
Lacrosse 5 2.0 04:32:03 67° NE 04:32:03 67° NE 04:36:26 10° NE
ATLAS CENTAUR R/B 3.5 04:32:06 18° NE 04:32:28 18° NE 04:35:11 10° E
ADEOS 3.7 04:30:26 10° NNE 04:35:41 72° ESE 04:40:53 10° S
Cosmos 1328 Rocket 4.2 04:35:39 45° NE 04:36:34 53° E 04:40:54 10° SSE
OAO 2 Rocket 4.3 04:37:06 35° S 04:37:13 35° S 04:41:49 10° ESE
Cosmos 2263 Rocket 3.1 04:43:11 34° N 04:43:11 34° N 04:46:44 10° NNE
Gbstr 26 Del rocket 3.9 04:43:34 36° NE 04:43:34 36° NE 04:46:36 10° E
SJ 16-02 2.6 04:45:52 30° NNE 04:45:52 30° NNE 04:48:11 10° NNE
Meteor 1-4 Rocket 4.1 04:46:47 28° SSE 04:46:47 28° SSE 04:48:34 10° SSE
USA 238 DEB 4.4 04:45:52 39° SW 04:45:52 39° SW 04:52:12 10° S
USA 238 4.3 04:45:55 39° WSW 04:45:55 39° WSW 04:52:19 10° S
Cosmos 1898 Rocket 4.2 04:46:05 10° S 04:51:14 55° ESE 04:56:27 10° NNE
Meteor 1-26 Rocket 4.2 04:48:59 13° N 04:54:16 87° E 04:59:51 10° S
FENGYUN 3A 3.6 04:55:13 10° N 05:00:33 61° WNW 05:05:50 10° SSW
Cosmos 1408 Rocket 3.6 04:56:27 10° S 05:00:54 79° E 05:05:22 10° N
COSMO-SKYMED 1 2.7 05:00:24 10° SSE 05:04:43 72° ENE 05:07:59 17° N
Cosmos 2181 Rocket 3.8 04:59:16 10° N 05:05:29 76° W 05:11:35 10° S
Cosmos 1709 Rocket 4.1 04:59:24 10° SSW 05:05:33 50° WNW 05:11:45 10° N
Cosmos 1937 Rocket 4.1 05:03:19 10° S 05:08:19 56° ESE 05:13:24 10° NNE
Cosmos 1603 4.5 05:12:26 31° WSW 05:12:26 31° WSW 05:16:46 10° SSW
Meteor 2-3 Rocket 3.7 05:07:15 10° SSW 05:12:51 57° WNW 05:18:34 10° N
CZ-4C R/B 1.9 05:11:05 26° SW 05:13:58 76° NW 05:19:48 10° NNE
Lacrosse 4 Rocket 1.8 05:14:32 45° WSW 05:14:34 45° WSW 05:18:46 10° S
Cosmos 1689 Rocket 2.2 05:14:56 10° SSE 05:17:45 66° ENE 05:18:12 54° NNE
FALCON 9 DEB 3.8 05:18:33 38° N 05:18:33 38° N 05:20:59 10° NE
Cosmos 1943 3.8 05:17:53 33° W 05:18:07 33° WSW 05:23:07 10° SSW
CZ-4B R/B 3.1 05:14:38 10° NNE 05:19:10 87° ESE 05:23:32 10° SSW
SAR-Lupe-4 3.4 05:18:00 10° S 05:21:33 69° WSW 05:22:38 41° NNW
Aureole 2 Rocket 3.9 05:20:11 10° SSE 05:22:24 27° ESE 05:24:38 10° NE
ATLAS 3B R/B 2.8 05:17:52 18° NNW 05:23:17 84° NE 05:30:33 10° SE
Cosmos 1862 3.8 05:21:43 10° S 05:25:42 61° E 05:29:43 10° NNE
Genesis I 3.0 05:24:54 28° SW 05:26:47 69° NW 05:30:37 10° NNE
YAOGAN 6 4.4 05:26:35 10° NNE 05:29:45 32° E 05:32:54 10° SSE
Cosmos 858 Rocket 4.4 05:27:22 10° SSW 05:32:35 90° WNW 05:37:51 10° NNE
deb Chang Zheng 4 3.9 05:28:48 10° N 05:32:52 40° WNW 05:36:57 10° SW
ALOS 3.4 05:29:03 10° N 05:31:44 24° NW 05:31:44 24° NW
Cosmos 990 Rocket 4.0 05:28:49 10° SW 05:33:56 55° WNW 05:39:06 10° NNE
Cosmos 2074 Rocket 3.9 05:29:17 10° SSW 05:35:29 74° W 05:41:42 10° N
Cosmos 923 Rocket 4.5 05:34:01 23° NW 05:36:46 40° WSW 05:41:41 10° S
SAR-Lupe-1 4.4 05:35:11 10° S 05:38:35 43° W 05:40:08 27° NW
PSLV R/B 4.3 05:34:51 10° NNE 05:38:40 59° E 05:42:22 10° S
ASTRO F (AKARI) 4.2 05:37:30 10° NNE 05:40:36 82° ESE 05:43:46 10° SSW
BREEZE M DEB (TANK) 3.3 05:30:40 10° SW 05:40:48 69° SSE 05:43:56 10° ENE
Cosmos 405 Rocket 2.6 05:37:49 10° S 05:41:30 86° E 05:45:15 10° N
EO 1 Delta rocket 3.8 05:40:46 10° S 05:45:56 83° W 05:50:35 10° N
Cosmos 1812 2.6 05:44:21 10° N 05:48:13 89° W 05:52:03 10° S
Cosmos 2228 Rocket 3.0 05:46:20 10° N 05:50:46 87° W 05:55:09 10° S
NOSS 3-4 (A) 4.4 05:48:19 19° WNW 05:51:08 27° NW 05:56:30 10° NNE
Cosmos 1515 Rocket 4.0 05:47:03 10° NNW 05:51:14 40° W 05:55:24 10° SSW
NOSS 3-4 (C) 4.4 05:48:24 19° WNW 05:51:15 27° NW 05:56:38 10° NNE
PSLV R/B 4.2 05:47:26 10° S 05:51:26 46° W 05:55:24 10° NNW
SL-4 R/B 3.5 05:50:37 16° NNW 05:52:23 21° N 05:55:15 10° NE
CENTAUR R/B 4.2 05:48:50 18° WNW 05:52:41 24° WSW 05:59:17 10° SSW
SKYMED 2 4.2 05:48:57 10° SSW 05:52:53 33° W 05:56:36 11° NNW
Cosmos 2184 Rocket 4.1 05:46:51 10° SSW 05:53:02 57° W 05:59:19 10° N
GPS 2-04 Rocket1 4.2 05:50:40 13° WSW 05:53:26 27° S 05:56:40 10° SE
Cosmos 1151 Rocket 4.4 05:53:56 18° W 05:53:56 18° W 05:56:42 10° SW
Cosmos 1782 3.8 05:52:14 19° NW 05:54:05 26° W 05:57:29 10° SSW
ERS-2 4.0 05:52:38 10° SW 05:53:52 14° WSW 05:53:52 14° WSW
FALCON 9 DEB 4.3 05:56:58 20° NW 05:57:54 23° NNW 06:00:34 10° NNE
Cosmos 1844 Rocket 2.8 05:54:06 10° SW 05:59:35 51° WNW 06:05:08 10° NNE
USA 234 3.6 05:53:22 10° NE 05:59:55 71° SE 06:06:26 10° SW
Spot 2 4.5 05:55:56 10° NNE 06:01:07 84° WNW 06:06:09 10° SSW
Cosmos 1680 Rocket 4.4 06:00:25 12° NW 06:04:36 30° W 06:09:10 10° SSW
COSMOS 2455 2.9 06:01:38 10° SSW 06:07:41 89° WNW 06:13:45 10° NNE
Cosmos 1707 Rocket 4.4 06:03:32 10° N 06:07:47 52° E 06:11:59 10° SSE
RESURS DK-1 3.4 06:04:39 10° WSW 06:08:10 26° NW 06:11:42 10° N
BREEZE-M (TANK) 3.9 06:00:23 10° SW 06:09:27 52° SSE 06:12:23 10° ENE
MOS 1-B 4.5 06:04:14 10° NNE 06:10:05 86° ESE 06:15:54 10° SSW
ATLAS 2AS CENTAUR R/B 3.7 06:03:49 10° W 06:10:52 33° NW 06:17:48 10° NNE
ATLAS CENTAUR R/B 1.5 06:08:18 13° NW 06:11:32 47° WSW 06:15:22 10° SSE
BREEZE-M DEB 3.5 06:02:56 12° WNW 06:11:40 78° SW 06:14:42 10° SE
Cosmos 1500 Rocket 4.1 06:08:55 10° SW 06:12:49 33° WNW 06:16:46 10° N
NOAA 6 4.0 06:08:02 10° NNE 06:13:10 81° WNW 06:18:16 10° SSW
Cosmos 1844 3.8 06:08:10 10° SW 06:13:31 49° WNW 06:18:56 10° NNE
Lacrosse 5 3.0 06:11:18 13° WNW 06:14:53 25° NNW 06:19:05 10° NNE
H-2A R/B 3.3 06:12:05 10° N 06:15:40 35° WNW 06:19:13 10° SW
Atlas Centaur 2 3.9 06:11:38 10° WSW 06:16:17 22° S 06:20:12 10° SE
Cosmos 372 Rocket 3.9 06:11:55 10° SSW 06:16:59 71° WNW 06:22:06 10° NNE
CZ-4B DEB 4.2 06:12:53 10° N 06:18:20 72° WNW 06:23:46 10° SSW
Cosmos 1437 Rocket 2.6 06:14:35 10° NNW 06:18:21 65° W 06:22:04 10° S
Okean O Rocket 2.0 06:17:25 10° NNE 06:21:53 71° ESE 06:26:19 10° S
USA 81 4.2 06:17:56 10° S 06:23:11 81° E 06:28:28 10° N
PAYLOAD B 4.2 06:19:17 10° NNE 06:24:48 77° WNW 06:30:16 10° SSW
SMAP 3.1 06:20:54 10° NNE 06:25:36 89° ESE 06:30:15 10° SSW
Gbstr 26 Del rocket 3.6 06:26:15 10° WNW 06:29:43 35° SW 06:33:29 10° SSE
ATLAS 5 CENTAUR R/B 1.9 06:26:13 10° SSW 06:30:11 67° ESE 06:34:34 10° NE
Sich 1 3.2 06:29:07 10° SSW 06:33:27 54° W 06:37:50 10° N
Cosmos 2218 Rocket 4.5 06:27:19 10° S 06:33:32 69° E 06:39:43 10° NNE
CZ-2C R/B 2.8 06:29:12 10° SSE 06:34:42 88° ENE 06:40:07 10° NNW
Nadezhda 3 Rocket 4.4 06:30:11 10° NNW 06:36:04 43° W 06:41:51 10° SSW
Cosmos 2366 rocket 4.4 06:31:37 10° S 06:37:54 72° E 06:44:10 10° NNE
